Location: Newark
(49.8969°N, 3.3422°E)
Time: 21:41:51
(UTC+00:00)

Tiros 1 - Pass Details

Date: 22 January 2021
Orbit: 630 x 664 km, 48.4° (Epoch: 08 March)

Event Time Altitude Azimuth Distance (km) Brightness Sun altitude
Rises 17:03:46 0° 186° (S) 2,919 10.9 -6.4°
Reaches altitude 10° 17:07:54 10° 151° (SSE) 2,009 9.6 -7.1°
Maximum altitude 17:09:06 11° 135° (SE) 1,948 9.4 -7.2°
Drops below altitude 10° 17:10:19 10° 120° (ESE) 2,009 9.3 -7.4°
Enters shadow 17:12:21 - 99° (E) 2,358 9.5 -7.7°
